User: anonymous   Login
Location: Koussan�
(15.2012°N, 12.5548°W)
Time: 14:28:19
(UTC+00:00)
Language:

USA 281 - Orbit

View from above orbital plane
View from above orbital plane
View from above satellite
View from above satellite

Ground track
Ground track

The orbit data is extracted from the following two-line orbital elements,

1 43145U 18005A   21008.71251169 0.00000000  00000-0  00000-0 0    07
2 43145 106.0230  70.8689 0006843  76.9471 283.0529 13.48018871    04
Epoch (UTC): 08 January 2021 17:06:01
Eccentricity: 0.0006843
inclination: 106.0230°
perigee height: 1074 km
apogee height: 1084 km
right ascension of ascending node: 70.8689°
argument of perigee: 76.9471°
revolutions per day: 13.48018871
mean anomaly at epoch: 283.0529°
orbit number at epoch: 0

The dashed part of the orbit path shows where the satellite is in the earth's shadow,  

DLR